TimeWET,TemperatureF,Dew PointF,Humidity,Sea Level PressureIn,VisibilityMPH,Wind Direction,Wind SpeedMPH,Gust SpeedMPH,PrecipitationIn,Events,Conditions,WindDirDegrees,DateUTC
12:00 AM,54,49,77,29.81,6,South,10.4,,,,Clear,180,2013-02-19 00:00:00
12:00 AM,53.6,48.2,82,29.80,6.2,South,10.4,-,N/A,,Mostly Cloudy,180,2013-02-19 00:00:00
12:30 AM,55.4,48.2,77,29.80,6.2,South,13.8,-,N/A,,Mostly Cloudy,180,2013-02-19 00:30:00
1:00 AM,55.4,48.2,77,29.80,6.2,SSW,13.8,-,N/A,,Mostly Cloudy,200,2013-02-19 01:00:00
1:30 AM,53.6,48.2,82,29.80,6.2,SW,11.5,-,N/A,,Mostly Cloudy,220,2013-02-19 01:30:00
2:00 AM,53.6,48.2,82,29.80,6.2,SSW,9.2,-,N/A,,Mostly Cloudy,210,2013-02-19 02:00:00
2:30 AM,53.6,48.2,82,29.77,6.2,SSW,5.8,-,N/A,,Mostly Cloudy,210,2013-02-19 02:30:00
3:00 AM,53,47,75,29.79,6,SSW,5.8,,,,Clear,200,2013-02-19 03:00:00
3:00 AM,53.6,48.2,82,29.77,6.2,SSW,5.8,-,N/A,,Mostly Cloudy,200,2013-02-19 03:00:00
3:30 AM,53.6,48.2,82,29.77,6.2,South,6.9,-,N/A,,Unknown,190,2013-02-19 03:30:00
4:00 AM,53.6,48.2,82,29.77,6.2,SSW,9.2,-,N/A,,Scattered Clouds,210,2013-02-19 04:00:00
4:30 AM,53.6,48.2,82,29.77,6.2,SSW,11.5,-,N/A,,Scattered Clouds,210,2013-02-19 04:30:00
5:00 AM,53.6,50.0,88,29.77,6.2,SSW,15.0,-,N/A,,Scattered Clouds,200,2013-02-19 05:00:00
5:30 AM,53.6,50.0,88,29.77,6.2,SSW,13.8,-,N/A,,Scattered Clouds,210,2013-02-19 05:30:00
6:00 AM,53,50,84,29.78,6,SSW,12.7,,,,Partly Cloudy,210,2013-02-19 06:00:00
6:00 AM,53.6,50.0,88,29.77,6.2,SSW,12.7,-,N/A,,Scattered Clouds,210,2013-02-19 06:00:00
6:30 AM,53.6,50.0,88,29.77,6.2,SSW,11.5,-,N/A,,Scattered Clouds,200,2013-02-19 06:30:00
7:00 AM,51.8,48.2,88,29.77,6.2,South,12.7,-,N/A,,Scattered Clouds,190,2013-02-19 07:00:00
7:30 AM,51.8,48.2,88,29.80,6.2,South,11.5,-,N/A,,Scattered Clouds,190,2013-02-19 07:30:00
8:00 AM,51.8,50.0,94,29.80,6.2,SSW,11.5,-,N/A,,Mostly Cloudy,200,2013-02-19 08:00:00
8:30 AM,53.6,50.0,88,29.83,6.2,SSW,10.4,-,N/A,,Mostly Cloudy,210,2013-02-19 08:30:00
9:00 AM,55,51,83,29.84,6,SSW,12.7,,,,Partly Cloudy,210,2013-02-19 09:00:00
9:00 AM,55.4,51.8,88,29.83,6.2,SSW,12.7,-,N/A,,Mostly Cloudy,210,2013-02-19 09:00:00
10:00 AM,57.2,51.8,82,29.83,6.2,SSW,13.8,-,N/A,,Mostly Cloudy,200,2013-02-19 10:00:00
10:30 AM,57.2,51.8,82,29.83,6.2,SW,11.5,-,N/A,,Mostly Cloudy,220,2013-02-19 10:30:00
11:00 AM,59.0,51.8,77,29.83,6.2,SW,12.7,-,N/A,,Mostly Cloudy,230,2013-02-19 11:00:00
11:30 AM,59.0,51.8,77,29.83,6.2,WSW,12.7,-,N/A,,Mostly Cloudy,250,2013-02-19 11:30:00
12:00 PM,58,51,70,29.85,6,NW,12.7,,,,Mostly Cloudy,320,2013-02-19 12:00:00
12:00 PM,57.2,51.8,82,29.83,6.2,NW,12.7,-,N/A,,Mostly Cloudy,320,2013-02-19 12:00:00
12:30 PM,59.0,50.0,72,29.83,6.2,NW,11.5,-,N/A,,Scattered Clouds,320,2013-02-19 12:30:00
1:00 PM,59.0,50.0,72,29.83,6.2,NW,10.4,-,N/A,,Scattered Clouds,320,2013-02-19 13:00:00
1:30 PM,59.0,51.8,77,29.83,6.2,NW,13.8,-,N/A,,Scattered Clouds,320,2013-02-19 13:30:00
2:00 PM,57.2,50.0,77,29.83,6.2,NW,17.3,-,N/A,,Scattered Clouds,320,2013-02-19 14:00:00
2:30 PM,57.2,50.0,77,29.83,6.2,NW,20.7,-,N/A,,Scattered Clouds,320,2013-02-19 14:30:00
3:00 PM,57,50,70,29.84,6,NNW,17.3,,,,Mostly Cloudy,340,2013-02-19 15:00:00
3:00 PM,57.2,50.0,77,29.83,6.2,NNW,17.3,-,N/A,,Mostly Cloudy,340,2013-02-19 15:00:00
3:30 PM,57.2,50.0,77,29.83,6.2,NNW,16.1,-,N/A,,Mostly Cloudy,340,2013-02-19 15:30:00
4:00 PM,57.2,50.0,77,29.83,6.2,NNW,12.7,-,N/A,,Mostly Cloudy,340,2013-02-19 16:00:00
4:30 PM,57.2,53.6,88,29.83,3.7,NNW,11.5,-,N/A,Rain,Light Rain,340,2013-02-19 16:30:00
5:00 PM,55.4,51.8,88,29.86,5.0,NNW,9.2,-,N/A,,Mostly Cloudy,330,2013-02-19 17:00:00
5:30 PM,57.2,50.0,77,29.86,6.2,NW,13.8,-,N/A,,Mostly Cloudy,320,2013-02-19 17:30:00
6:00 PM,56,48,66,29.89,5,NW,12.7,,,,Partly Cloudy,310,2013-02-19 18:00:00
6:00 PM,55.4,48.2,77,29.89,5.0,NW,12.7,-,N/A,,Scattered Clouds,310,2013-02-19 18:00:00
6:30 PM,53.6,46.4,77,29.89,6.2,WNW,9.2,-,N/A,,Scattered Clouds,300,2013-02-19 18:30:00
7:00 PM,51.8,44.6,76,29.92,5.0,WNW,6.9,-,N/A,,Scattered Clouds,300,2013-02-19 19:00:00
7:30 PM,51.8,48.2,88,29.92,6.2,WNW,8.1,-,N/A,Rain,Rain,300,2013-02-19 19:30:00
8:00 PM,51.8,48.2,88,29.92,5.0,NW,2.3,-,N/A,,Mostly Cloudy,310,2013-02-19 20:00:00
8:30 PM,50.0,46.4,87,29.95,6.2,SW,4.6,-,N/A,,Mostly Cloudy,230,2013-02-19 20:30:00
9:00 PM,48,44,82,29.97,6,SW,5.8,,,,Clear,220,2013-02-19 21:00:00
9:00 PM,48.2,44.6,87,29.95,6.2,SW,5.8,-,N/A,,Mostly Cloudy,220,2013-02-19 21:00:00
9:30 PM,46.4,42.8,87,29.98,6.2,SW,8.1,-,N/A,,Mostly Cloudy,220,2013-02-19 21:30:00
10:00 PM,44.6,42.8,93,29.98,6.2,SSW,8.1,-,N/A,,Mostly Cloudy,210,2013-02-19 22:00:00
10:30 PM,44.6,42.8,93,29.98,6.2,SSW,8.1,-,N/A,,Scattered Clouds,200,2013-02-19 22:30:00
11:00 PM,46.4,42.8,87,29.98,6.2,SSW,8.1,-,N/A,,Scattered Clouds,210,2013-02-19 23:00:00
11:30 PM,44.6,41.0,87,29.98,6.2,SSW,8.1,-,N/A,,Scattered Clouds,210,2013-02-19 23:30:00